Regional Weather Roundup
Issued by NWS Newport/Morehead, NC

Home | Current Version | Previous Version | Text Only | Print | Product List | Glossary On
Versions: 1 2 3 4 5 6 7 8 9 10 11 12 13 14 15 16 17 18 19 20 21 22 23 24 25 26 27 28 29 30 31 32 33 34 35 36 37 38 39 40 41 42 43 44 45 46 47 48 49 50
000
ASUS42 KMHX 020425
RWRMHX
WEATHER ROUNDUP FOR EASTERN NORTH CAROLINA
NATIONAL WEATHER SERVICE NEWPORT/MOREHEAD CITY NC
1200 AM EDT WED SEP 02 2015

NOTE: "FAIR" INDICATES FEW OR NO CLOUDS BELOW 12,000 FEET
WITH NO SIGNIFICANT WEATHER AND/OR OBSTRUCTIONS TO VISIBILITY

NCZ015>017-031-032-045>047-102-103-020500-
NORTH COAST

CITY           SKY/WX    TMP DP  RH WIND       PRES   REMARKS
EDENTON        CLEAR     71  70  95 CALM      30.07S
ELIZABETH CITY FOG       72  72 100 CALM      30.06F VSB 1/4
KITTY HAWK     CLEAR     74  69  85 CALM      30.05S
MANTEO         CLEAR     73  72  98 CALM      30.06F

$$

NCZ045>047-081-094-103-104-020500-
CENTRAL COAST

CITY           SKY/WX    TMP DP  RH WIND       PRES   REMARKS
FRISCO         FAIR      74  72  93 CALM      30.06F
SWANQUARTER      N/A     73 N/A N/A CALM      30.03S

$$

NCZ095-097-098-100-101-020500-
SOUTHERN COAST

CITY           SKY/WX    TMP DP  RH WIND       PRES   REMARKS
BEAUFORT       CLEAR     76  76 100 CALM      30.07S
CEDAR ISLAND     N/A     77 N/A N/A SW3       30.09S
JACKSONVILLE   PTCLDY    75  72  90 SW6       30.07R
PINEY ISLAND   CLEAR    N/A N/A N/A SW5       30.06S
WILMINGTON     PTCLDY    75  73  93 S5        30.08S


$$

NCZ011>013-027>030-043-044-078>080-089-090>093-098-020500-
COASTAL PLAIN

CITY           SKY/WX    TMP DP  RH WIND       PRES   REMARKS
AHOSKIE        CLEAR     69  68  98 CALM      30.08S
CLINTON        CLEAR     74  73  99 CALM      30.08S
ELIZABETHTOWN  PTCLDY    77  74  91 CALM      30.08S
GOLDSBORO      CLEAR     73  71  92 CALM      30.06S
GREENVILLE     CLEAR     72  72 100 CALM      30.09S FOG
HAVELOCK       PTCLDY    75  73  93 SW5       30.08S
KENANSVILLE      N/A     72  71  97 CALM      30.09S
KINSTON        CLEAR     72  71  97 CALM      30.08S
NEW BERN       CLEAR     73  71  93 CALM      30.09R
RICHLANDS      PTCLDY    73  66  78 CALM      30.08S
ROCKY MOUNT    CLEAR     72  70  93 CALM      30.08S
WASHINGTON     CLEAR     72  71  97 CALM      30.07S
WHITEVILLE     PTCLDY    76  73  90 CALM      30.08S

$$

AMZ130-135-150-152-154-156-158-170-250-252-270-ANZ085-086-088-633-658-670-020500-
MARINE OBSERVATIONS

STATION/POSITION TIME  TEMP    WIND        PRES    WAVE   SWELL
                       AIR SEA DIR/SP/G            HT/PER HT/PER
                 (UTC) (F)     (DEG/KT/KT) (MB)    (FT/S) (FT/S)
CHESAPEAKE LIGHT 0400   77     200/  8/  8 1018.5
64 E VA BEACH    0350   78 79  250/  2/  2 1017.6    2/ 9   2/ 9
DUCK             0400   78 78  170/  4/  5 1017.1
2 E DUCK         0311      81                N/A     2/10
OREGON INLET     0400   77 83   80/  1/  1 1017.8
13E OREGON INLT  0400      79                N/A     2/10
HATTERAS CG      0400   78 83  230/  3/  4 1017.7
DIAMOND BUOY     0350   80 84  280/  6/  8 1018.0    2/ 8   2/ 8
CAPE LOOKOUT     0400   79     270/  8/  9 1018.0
BEAUFORT LAB     0400   78 80  290/  2/  4 1017.7
30 SE NEW RVR IN 0308   80 82  260/ 10/ 12 1018.7
30 SE NEW RVR IN 0325      82                N/A     2/ 7
27 SE WRIGHTSVLE 0400   77 82  260/ 10/ 12   N/A
5 SE WRIGHTSVLE  0308   81 82  240/ 10/ 14 1018.4
225 S CAPE HAT   0350   84 85  260/  8/ 10 1018.4    3/ 5   2/ 5
41 SE CHARLESTON 0350   82 83  160/  8/  8 1018.5    2/ 7   2/ 7

$$



USA.gov is the U.S. government's official web portal to all federal, state and local government web resources and services.